Terug naar catalogus

STARLINK-35488

ActiefCommunicatieVLEO
NORAD 66254·PAYLOAD·🇺🇸 United States

Gelanceerd Oct 29, 2025 vanaf Cape Canaveral Space Force Station

Loading…

Volgende Passages (komende 24 uur)

TLE

VersSource: CelesTrak SupGP

Epoch: Sep 14, 2026, 21:18 UTC

1 66254C 25245W   26257.88798611 -.00072509  00000+0 -23317-2 0  2570
2 66254  53.1569 123.9089 0001267  87.7060 149.2719 15.31737625    14

Volg STARLINK-35488 in realtime met AllMySat

Download on the App Store